Regional Weather Roundup
Issued by NWS

Home | Current Version | Previous Version | Graphics & Text | Print | Product List | Glossary On
Versions: 1 2 3 4 5 6 7 8 9 10 11 12 13 14 15 16 17 18 19 20 21 22 23 24 25 26 27 28 29 30 31 32 33 34 35 36 37 38 39 40 41 42 43 44 45 46 47 48 49 50
000
ASUS43 KBIS 061510
RWRND

NORTH DAKOTA REGIONAL WEATHER ROUNDUP
NATIONAL WEATHER SERVICE BISMARCK ND
900 AM CST TUE DEC 06 2016

NOTE: "FAIR" INDICATES FEW OR NO CLOUDS BELOW 12,000 FEET WITH NO
SIGNIFICANT WEATHER AND/OR OBSTRUCTIONS TO VISIBILITY.


NDZ001>003-009>011-017-061600-
NORTHWEST NORTH DAKOTA

CITY           SKY/WX    TMP DP  RH WIND       PRES   REMARKS
WILLISTON      CLOUDY     4  -2  76 W17       30.02R WCI -16
MINOT          SNOW      10   6  84 W38G47    29.78R VSB<1/4 WCI -14
MINOT AFB      BLWGSNOW   9   6  86 NW39G45   29.77R VSB<1/4 WCI -16
$$

NDZ018>021-031>035-040>046-061600-
SOUTHWEST NORTH DAKOTA

CITY           SKY/WX    TMP DP  RH WIND       PRES   REMARKS
BISMARCK       SNOW       9   6  88 NW25G38   29.83R VSB 1/2 WCI -12
DICKINSON      MIX PCPN   2  -4  76 NW31G43   29.89R VSB 3/4 WCI -24
GARRISON         N/A      8   4  83 MISG      29.80R
HETTINGER ARPT CLOUDY     3  -3  76 NW31G43   29.92R HAZE    WCI -22
$$

NDZ004>008-012>016-024-026-027-054-061600-
NORTHEAST NORTH DAKOTA

CITY           SKY/WX    TMP DP  RH WIND       PRES   REMARKS
GRAND FORKS    SNOW      29  26  89 NW32G40   29.28F VSB 1/2 WCI  13
GRND FRKS AFB  SNOW      28  26  92 NW28G35   29.31S VSB 1/2 WCI  13
DEVILS LAKE    SNOW      20  18  92 NW36G51   29.49R VSB 1/4 WCI   0
$$

NDZ022-023-025-028>030-036>039-047>053-061600-
SOUTHEAST NORTH DAKOTA

CITY           SKY/WX    TMP DP  RH WIND       PRES   REMARKS
FARGO          SNOW      23  20  88 W33G41    29.40R VSB 1/2 WCI   5
JAMESTOWN      SNOW      15  12  88 NW40G51   29.56R VSB 1/4 WCI  -8
$$





USA.gov is the U.S. government's official web portal to all federal, state and local government web resources and services.